ETH819 HAAB-FQMA

Flight info

Callsign ETH819
Flight time N/A
Altitude 34000
Route SHALA1B SHALA UM308 LOTAS UM441 LOSIN UM315 DVL UG656 EGPON EGPON1B
Aircraft B38M/M-SDE1FGHILORVWXY/HB1

Departure

Time 2026-04-28 12:44
Airport Addis Ababa Bole International Airport (HAAB)

Arrival

Time N/A
Airport Maputo Airport (FQMA)
Time Latitude Longitude Altitude Speed Heading
2026-04-28 11:56 8.98287 38.79811 7959 ft 0 kts 342°
2026-04-28 12:34 8.98275 38.79814 7291 ft 4 kts 342°
2026-04-28 12:34 8.98249 38.79822 7618 ft 4 kts 343°
2026-04-28 12:34 8.98224 38.79827 7618 ft 4 kts
2026-04-28 12:34 8.98201 38.79817 7618 ft 4 kts 53°
2026-04-28 12:35 8.98195 38.79806 7618 ft 2 kts 74°
2026-04-28 12:37 8.98196 38.79807 7618 ft 1 kts 74°
2026-04-28 12:37 8.98199 38.79818 7618 ft 3 kts 74°
2026-04-28 12:37 8.98208 38.79852 7618 ft 8 kts 74°
2026-04-28 12:38 8.98226 38.79912 7618 ft 10 kts 73°
2026-04-28 12:38 8.98247 38.79982 7618 ft 11 kts 73°
2026-04-28 12:38 8.98264 38.80054 7617 ft 11 kts 89°
2026-04-28 12:38 8.98226 38.80107 7617 ft 10 kts 161°
2026-04-28 12:39 8.98161 38.80128 7617 ft 10 kts 162°
2026-04-28 12:39 8.98079 38.80154 7618 ft 14 kts 162°
2026-04-28 12:39 8.97995 38.80201 7620 ft 14 kts 107°
2026-04-28 12:39 8.98003 38.80296 7620 ft 14 kts 77°
2026-04-28 12:40 8.98031 38.80396 7619 ft 16 kts 73°
2026-04-28 12:40 8.98065 38.80504 7617 ft 16 kts 71°
2026-04-28 12:40 8.98102 38.80612 7616 ft 16 kts 72°
2026-04-28 12:40 8.98131 38.80723 7615 ft 17 kts 75°
2026-04-28 12:41 8.98162 38.80842 7614 ft 18 kts 75°
2026-04-28 12:41 8.98203 38.80981 7614 ft 24 kts 72°
2026-04-28 12:41 8.98242 38.81102 7614 ft 15 kts 71°
2026-04-28 12:41 8.98283 38.81227 7612 ft 22 kts 75°
2026-04-28 12:42 8.98324 38.81375 7612 ft 22 kts 73°
2026-04-28 12:42 8.98290 38.81502 7610 ft 20 kts 130°
2026-04-28 12:42 8.98282 38.81512 7610 ft 0 kts 130°
2026-04-28 12:43 8.98280 38.81514 7610 ft 2 kts 130°
2026-04-28 12:43 8.98247 38.81550 7606 ft 13 kts 141°
2026-04-28 12:43 8.98160 38.81512 7604 ft 19 kts 252°
2026-04-28 12:43 8.98099 38.81309 7604 ft 56 kts 253°
2026-04-28 12:44 8.97929 38.80737 7610 ft 112 kts 253°
2026-04-28 12:44 8.97652 38.79822 7617 ft 159 kts 253°
2026-04-28 12:44 8.97279 38.78629 7714 ft 187 kts 249°
2026-04-28 12:44 8.96881 38.77359 8260 ft 197 kts 249°
2026-04-28 12:45 8.96272 38.76114 8280 ft 200 kts 223°
2026-04-28 12:45 8.95111 38.75319 7495 ft 218 kts 194°